Weather in Ksar el-Kebir

Morocco     35°00′15″N   5°54′06″W
temp.,
°C
wind,
m/s
gust,
m/s
humid.,
%
clouds,
%
prec.,
mm/h
press.,
hPa
HPBL,
m
27 february, sat
sat2701:00+12sse2296100 0.8 102330
04:00+10sse3396100 0.0 102172
07:00+10e1295100 0.0 102123
10:00+12n1187100 0.0 1021149
13:00+17nne1173100 0.0 1020574
16:00+18nnw4474100 0.1 1018705
19:00+15nnw1288100 1.3 101735
22:00+12e118489 0.0 101823
28 february, sun
sun2801:00+11e228292 0.1 101723
04:00+10e238599 0.0 101625
07:00+10ene2286100 0.0 101523
10:00+13sse2382100 0.0 1016171
13:00+19sse3465100 0.0 1015704
16:00+20nne456255 0.0 1013933
19:00+16se127877 0.8 101332
22:00+13n3688100 2.5 1014137
1 march, mon
mon101:00+11ese119099 3.1 101523
04:00+11e4689100 0.4 101496
07:00+11ssw0190100 0.6 101424
10:00+14se108286 0.0 1015167
13:00+19nw116963 1.0 1016372
16:00+19nw326968 1.4 1014788
19:00+15wnw248868 2.7 1016100
22:00+12n009175 0.1 101823
2 march, tue
tue201:00+11ese119051 0.1 101922
04:00+11sse11907 0.0 101922
07:00+10ese12904 0.0 101922
10:00+14se11780 0.0 1021185
13:00+19nne11630 0.0 1022923
16:00+19nnw43695 0.0 1021790
19:00+15nnw23843 0.1 102148
22:00+12ene12890 0.0 102323
3 march, wed
wed301:00+11e22860 0.0 102323
04:00+10e23810 0.0 102224
07:00+9e22830 0.0 102223
10:00+14ese23760 0.0 1022183
13:00+20e34600 0.0 1022751
16:00+22ne3456100 0.0 10201461
19:00+16ene3575100 0.0 101997
22:00+13e3379100 0.0 102053